Regional Weather Roundup
Issued by NWS San Diego, CA

Home | Current Version | Previous Version | Text Only | Print | Product List | Glossary On
Versions: 1 2 3 4 5 6 7 8 9 10 11 12 13 14 15 16 17 18 19 20 21 22 23 24 25 26 27 28 29 30 31 32 33 34 35 36 37 38 39 40 41 42 43 44 45 46 47 48
000
ASUS46 KSGX 280811
RWRSGX

SAN DIEGO HOURLY WEATHER ROUNDUP
NATIONAL WEATHER SERVICE SAN DIEGO CA
100 AM PDT FRI AUG 28 2015

NOTE: "FAIR" INDICATES FEW OR NO CLOUDS BELOW 12,000 FEET WITH NO
SIGNIFICANT WEATHER AND/OR OBSTRUCTIONS TO VISIBILITY.

CAZ042-043-060-061-PZZ750-775-280900-

GREATER SAN DIEGO AREA

CITY           SKY/WX    TMP DP  RH WIND       PRES   REMARKS
LINDBERGH FLD  CLEAR     76  68  76 NW3       29.91F
POINT LOMA       N/A     70  67  89 W6          N/A
NATIONAL CITY    N/A     75  71  88 CALM      29.91S
CHULA VISTA      N/A     72  69  90 CALM      29.83F
IMPERIAL BEACH MOCLDY   N/A N/A N/A CALM      29.91S
BROWN FIELD    CLEAR     72  66  81 CALM      29.91F
MIRAMAR MCAS   PTCLDY    75  62  64 NE3       29.91F
MONTGOMERY FLD CLEAR     76  65  68 CALM      29.92S

$$

NORTH SAN DIEGO COUNTY

CITY           SKY/WX    TMP DP  RH WIND       PRES   REMARKS
CAMP PENDLETON CLEAR     69  63  81 CALM      29.90S
OCEANSIDE AP   CLEAR     69  65  86 CALM      29.90S
OCEANSIDE HBR    N/A     74  72  93 CALM      29.92F
VISTA            N/A     71  65  81 CALM      29.89S
CARLSBAD       CLEAR     74  69  85 CALM      29.91S
DEL MAR          N/A     70  68  92 CALM      29.92F
FALLBROOK        N/A     74  65  75 CALM      29.89S
ESCONDIDO        N/A     76  56  49 CALM      29.92S
SAN MARCOS       N/A     74  65  73 CALM      29.88S
POWAY            N/A     72  58  60 CALM      29.91S

$$

EAST SAN DIEGO COUNTY

CITY           SKY/WX    TMP DP  RH WIND       PRES   REMARKS
RAMONA         CLEAR     70  48  45 CALM      29.96S
SANTEE LAKES     N/A     74  60  60 CALM      29.89S
LA MESA          N/A     73  68  84 CALM      29.83S
JAMUL            N/A     73  62  68 CALM      29.89S
DESCANSO N       N/A     72  53  50 CALM      29.78S
CAMPO            N/A     68  50  52 NE6       30.01F

$$

ORANGE COUNTY AND THE LOS ANGELES BASIN

CITY           SKY/WX    TMP DP  RH WIND       PRES   REMARKS
JOHN WAYNE AP  CLEAR     75  66  73 CALM      29.90F
LAKE FOREST FR   N/A     75  56  51 CALM      29.78F
SANTA ANA        N/A     74  65  73 CALM      29.85F
HUNTINGTON BCH   N/A     70  67  91 CALM      29.91F
LOS ALAMITOS   FAIR      71  70  95 CALM      29.90F
FULLERTON      CLEAR     76  67  73 CALM      29.89F
LONG BEACH     CLEAR     75  69  81 CALM      29.90F
L.A. AP        CLEAR     75  66  73 VRB3      29.91S
L.A. DOWNTOWN  CLEAR     75  64  68 CALM      29.90F

$$

THE INLAND EMPIRE

CITY           SKY/WX    TMP DP  RH WIND       PRES   REMARKS
CORONA         CLEAR     70  57  63 CALM      29.93S
CHINO          CLEAR     75  59  57 CALM      29.94S
ONTARIO        CLEAR     78  57  48 CALM      29.93F
RIVERSIDE AP   CLEAR     80  57  45 CALM      29.94S
MORENO VALLEY    N/A     77  57  50 CALM      29.94S
MARCH ARB      CLEAR     74  55  51 CALM      29.97S
HORSETHIEF CYN   N/A     77  49  37 S3        29.93S
PERRIS           N/A     80  55  41 CALM      29.96S
MENIFEE          N/A     79  57  46 E1        30.01S
HEMET EAST       N/A     78  42  27 CALM      29.93F
FRENCH VALLEY  FAIR      75  54  46 CALM      29.96S
TEMECULA         N/A     76  55  49 CALM      29.93S

$$

SAN BERNARDINO AND RIVERSIDE COUNTY MOUNTAINS

CITY           SKY/WX    TMP DP  RH WIND       PRES   REMARKS
BIG BEAR AP    CLEAR     52  41  66 CALM      30.36S
ANGELUS OAKS     N/A     66  47  49 CALM      29.82S
PINE COVE        N/A     69  50  51 CALM      29.90F

$$

SOUTHERN DESERT INCLUDING THE COACHELLA VALLEY

CITY           SKY/WX    TMP DP  RH WIND       PRES   REMARKS
PALM SPRINGS   CLEAR     94  56  27 NE5       29.86R
THOUSAND PALMS   N/A     95  54  24 W8        29.81S
PALM DESERT      N/A     93  59  31 CALM        N/A
THERMAL        CLEAR     94  56  27 NW6       29.78R
BLYTHE         CLEAR     92  64  39 E5        29.84R
IMPERIAL AP    CLEAR     93  55  27 W6        29.79S
EL CENTRO NAS  CLEAR     91  54  28 W6        29.81S
YUMA AZ        PTCLDY    93  66  40 SW6       29.83S HX  96

$$

UPPER DESERT

CITY           SKY/WX    TMP DP  RH WIND       PRES   REMARKS
VICTORVILLE AP CLEAR     77  43  29 CALM      30.06R
HESPERIA         N/A     76  50  39 CALM      29.98S
APPLE VALLEY     N/A     74  48  39 CALM      30.10S
PALMDALE       CLEAR     77  41  27 SW8       30.03S
LANCASTER      CLEAR     81  38  21 SW6       30.01F
EDWARDS AFB    CLEAR     78  39  24 SW10      29.98F
DAGGETT        CLEAR     85  37  18 W8        29.97S
29 PALMS N     CLEAR     87  47  24 CALM      30.03R
NEEDLES        CLEAR     94  57  28 E5        29.88R

$$

REGIONAL REPORTS

CITY           SKY/WX    TMP DP  RH WIND       PRES   REMARKS
SANTA BARBARA  CLEAR     69  63  81 E3        29.88S
SANDBERG       CLEAR     79  34  19 N13G28    30.19F
LAS VEGAS NV   CLEAR     89  51  27 S3        29.93S
PHOENIX AZ     MOCLDY    87  69  54 E6        29.91F
TIJUANA        CLEAR     75  61  60 N3        29.94S
ENSENADA NW      N/A     73  32  22 CALM      29.87F

$$

OFFSHORE ISLANDS

CITY           SKY/WX    TMP DP  RH WIND       PRES   REMARKS
CATALINA ARPT  CLEAR     82  48  30 CALM      29.98F
SAN NICOLAS IS CLEAR    N/A N/A N/A E5        29.90F

$$

MARINE AND OFFSHORE BUOY REPORTS

STATION/POSITION SKY/WX   TEMP    WIND        PRES    SWELL
                          AIR SEA DIR/SP/G            HT/PER/DIR
                          (F)     (DEG/KT/KT) (MB)    (FT/S/D)
TANNER BANKS               70 70  310/ 12/ 16 1012.8R   3/240/16
S CLEMENTE BASIN           69 72  230/  4/  6 1012.4F   3/210/16
SO. S. ROSA ISLA           69 68  330/ 16/ 19 1011.2R   3/16
W. S. BARBARA CH           68 66  320/ 21/ 25 1010.9F   3/310/14
M. S. BARBARA CH           71 70   80/  4/  6 1012.1R
S. MONICA BASIN            71 74  130/  6/  8 1012.4R   2/240/16
S PEDRO CHANNEL               73                N/A     2/250/13
DANA POINT                    74                N/A     2/230/15
OCEANSIDE OFFSHR              75                N/A     2/190/17
TORREY PINES OTR              75                N/A     2/200/17
LA JOLLA 1                 74 74   60/  1/  2 1012.4F
MISSION BAY BUOY              76                N/A     2/210/17
SAN DIEGO BAY                 76              1013.1F
POINT LOMA SOUTH              73                N/A     2/230/15

$$




USA.gov is the U.S. government's official web portal to all federal, state and local government web resources and services.